Вернуться в каталог

STARLINK-34594

АктивенСвязьVLEO
NORAD 65088·PAYLOAD·🇺🇸 United States

Запущен Aug 4, 2025 с Cape Canaveral Space Force Station

Loading…

Ближайшие Пролёты (ближайшие 24 часа)

TLE

СвежийSource: CelesTrak SupGP

Эпоха: Sep 14, 2026, 23:10 UTC

1 65088C 25167L   26257.96576389  .00008411  00000+0  24838-3 0  2571
2 65088  53.1593 227.2492 0001519  91.7206 219.0789 15.34402895    12

Отслеживайте STARLINK-34594 в реальном времени с AllMySat

Download on the App Store